| time (UTC) | temp C | wind direction | speed KPH | gust KPH | rain 1hr cm | rain 24hr cm | rain mn cm | humidity % | barometer mb |
| 20260905133502 | 32 | 250 | 9.7 | 0.0 | 0.00 | 0.00 | 0.00 | 28 | 1011.0 |
| 20260905130502 | 32 | 270 | 11.3 | 0.0 | 0.00 | 0.00 | 0.00 | 28 | 1011.0 |
| 20260905123502 | 32 | 11.3 | 0.0 | 0.00 | 0.00 | 0.00 | 27 | 1012.0 | |
| 20260905120502 | 32 | 260 | 11.3 | 0.0 | 0.00 | 0.00 | 0.00 | 28 | 1012.0 |
| 20260905113503 | 32 | 210 | 12.9 | 0.0 | 0.00 | 0.00 | 0.00 | 29 | 1012.0 |
| 20260905110502 | 31 | 190 | 11.3 | 0.0 | 0.00 | 0.00 | 0.00 | 31 | 1012.0 |
| 20260905103503 | 31 | 190 | 9.7 | 0.0 | 0.00 | 0.00 | 0.00 | 31 | 1013.0 |
| 20260905100502 | 31 | 200 | 12.9 | 0.0 | 0.00 | 0.00 | 0.00 | 31 | 1013.0 |
| 20260905093502 | 31 | 220 | 12.9 | 0.0 | 0.00 | 0.00 | 0.00 | 33 | 1013.0 |
| 20260905090503 | 30 | 210 | 12.9 | 0.0 | 0.00 | 0.00 | 0.00 | 33 | 1013.0 |
| 20260905083503 | 28 | 240 | 12.9 | 0.0 | 0.00 | 0.00 | 0.00 | 35 | 1013.0 |
| 20260905080502 | 27 | 240 | 11.3 | 0.0 | 0.00 | 0.00 | 0.00 | 37 | 1014.0 |
| 20260905073502 | 27 | 190 | 9.7 | 0.0 | 0.00 | 0.00 | 0.00 | 42 | 1014.0 |
| 20260905070503 | 26 | 190 | 9.7 | 0.0 | 0.00 | 0.00 | 0.00 | 45 | 1014.0 |
| 20260905063502 | 23 | 210 | 11.3 | 0.0 | 0.00 | 0.00 | 0.00 | 47 | 1014.0 |
| 20260905060503 | 22 | 210 | 9.7 | 0.0 | 0.00 | 0.00 | 0.00 | 53 | 1014.0 |
| 20260905053502 | 21 | 200 | 9.7 | 0.0 | 0.00 | 0.00 | 0.00 | 57 | 1014.0 |
| 20260905050502 | 18 | 3.2 | 0.0 | 0.00 | 0.00 | 0.00 | 64 | 1014.0 | |
| 20260905043502 | 17 | 210 | 4.8 | 0.0 | 0.00 | 0.00 | 0.00 | 64 | 1014.0 |
| 20260905040502 | 17 | 230 | 9.7 | 0.0 | 0.00 | 0.00 | 0.00 | 64 | 1014.0 |
| 20260905033502 | 17 | 230 | 9.7 | 0.0 | 0.00 | 0.00 | 0.00 | 64 | 1014.0 |
| 20260905030502 | 18 | 220 | 8.0 | 0.0 | 0.00 | 0.00 | 0.00 | 56 | 1014.0 |
| 20260905023502 | 18 | 250 | 9.7 | 0.0 | 0.00 | 0.00 | 0.00 | 60 | 1014.0 |
| 20260905020502 | 18 | 3.2 | 0.0 | 0.00 | 0.00 | 0.00 | 60 | 1014.0 | |
| 20260905013502 | 18 | 210 | 4.8 | 0.0 | 0.00 | 0.00 | 0.00 | 60 | 1014.0 |
| 20260905010502 | 18 | 240 | 4.8 | 0.0 | 0.00 | 0.00 | 0.00 | ||
| 20260905003502 | 18 | 220 | 3.2 | 0.0 | 0.00 | 0.00 | 0.00 | 60 | 1014.0 |
| 20260905000501 | 18 | 1.6 | 0.0 | 0.00 | 0.00 | 0.00 | 64 | 1014.0 | |
| 20260904233503 | 20 | 220 | 4.8 | 0.0 | 0.00 | 0.00 | 0.00 | 60 | 1014.0 |
| 20260904230503 | 20 | 1.6 | 0.0 | 0.00 | 0.00 | 0.00 | 64 | 1014.0 | |
| 20260904223502 | 20 | 1.6 | 0.0 | 0.00 | 0.00 | 0.00 | 64 | 1014.0 | |
| 20260904220502 | 20 | 0 | 0.0 | 0.0 | 0.00 | 0.00 | 0.00 | 64 | 1014.0 |
| 20260904213502 | 20 | 0 | 0.0 | 0.0 | 0.00 | 0.00 | 0.00 | 64 | 1015.0 |
| 20260904210503 | 20 | 0 | 0.0 | 0.0 | 0.00 | 0.00 | 0.00 | 64 | 1014.0 |
| 20260904203502 | 21 | 240 | 3.2 | 0.0 | 0.00 | 0.00 | 0.00 | 60 | 1014.0 |
| 20260904200502 | 22 | 230 | 1.6 | 0.0 | 0.00 | 0.00 | 0.00 | 57 | 1014.0 |
| 20260904193502 | 22 | 240 | 3.2 | 0.0 | 0.00 | 0.00 | 0.00 | 53 | 1014.0 |
| 20260904190502 | 22 | 210 | 4.8 | 0.0 | 0.00 | 0.00 | 0.00 | 50 | 1015.0 |
| 20260904183502 | 22 | 220 | 3.2 | 0.0 | 0.00 | 0.00 | 0.00 | 50 | 1015.0 |
| 20260904180502 | 23 | 0 | 0.0 | 0.0 | 0.00 | 0.00 | 0.00 | 47 | 1015.0 |
| 20260904173503 | 23 | 150 | 1.6 | 0.0 | 0.00 | 0.00 | 0.00 | 47 | 1014.0 |
| 20260904170503 | 25 | 320 | 1.6 | 0.0 | 0.00 | 0.00 | 0.00 | 42 | 1014.0 |
| 20260904163502 | 25 | 330 | 8.0 | 0.0 | 0.00 | 0.00 | 0.00 | 44 | 1014.0 |
| 20260904160502 | 25 | 330 | 12.9 | 0.0 | 0.00 | 0.00 | 0.00 | 44 | 1014.0 |
| 20260904153502 | 26 | 300 | 4.8 | 0.0 | 0.00 | 0.00 | 0.00 | 39 | 1014.0 |
| 20260904150502 | 27 | 300 | 8.0 | 0.0 | 0.00 | 0.00 | 0.00 | 37 | 1014.0 |
| 20260904143502 | 27 | 280 | 4.8 | 0.0 | 0.00 | 0.00 | 0.00 | 32 | 1014.0 |
| 20260904140502 | 27 | 320 | 9.7 | 0.0 | 0.00 | 0.00 | 0.00 | 35 | 1015.0 |